Location: Sweet Grass
(48.9965°N, 111.9649°W)
Time: 16:31:14
(UTC+00:00)

DX 1 - Pass Details

Date: 07 April 2023
Orbit: 615 x 625 km, 98.4° (Epoch: 04 June)

Event Time Altitude Azimuth Distance (km) Brightness Sun altitude
Rises 05:25:00 0° 20° (NNE) 2,899 ? -27.9°
Reaches altitude 10° 05:27:18 10° 28° (NNE) 1,989 ? -28.1°
Enters shadow 05:28:38 19° 36° (NE) 1,496 ? -28.3°
